Wind_Speed
20 19 20 19 17 16 16 15 15 14 14 15 15 14 14 15 15 15 15 15 15 15 16 16 17 18 19 21 21 22 23 23 24 24 24 25 24 25 25 25 25 25 25 26
20 20 20 19 18 18 17 17 16 15 16 16 17 16 15 15 16 17 17 17 16 17 17 17 18 19 21 21 22 23 24 25 25 25 25 25 26 25 25 25 25 25 26 26
20 21 20 20 18 18 18 17 16 16 16 17 17 17 16 16 16 17 18 18 18 18 19 18 19 20 21 22 23 24 25 25 25 26 26 27 26 26 26 26 26 26 27 27
20 20 20 19 18 18 17 17 17 17 18 18 17 18 18 17 17 17 18 18 19 19 20 20 21 22 23 23 24 24 24 24 26 26 26 26 26 26 26 27 27 27 27 28
21 20 20 20 18 18 18 18 18 18 18 19 19 19 19 18 18 18 18 18 19 20 20 21 22 23 23 23 24 24 24 25 26 27 26 26 26 27 27 27 28 28 28 28
24 22 21 20 19 18 18 18 18 18 18 19 19 19 19 19 19 19 19 19 19 20 21 22 22 23 24 24 25 25 26 27 28 28 28 28 28 27 28 28 28 28 29 29
25 24 22 22 20 19 19 18 18 18 18 19 19 20 20 20 20 20 20 20 20 21 22 23 25 25 25 26 26 27 28 29 29 29 30 30 30 30 29 29 30 30 30 30
26 25 24 24 22 21 20 20 20 19 20 20 21 21 22 22 22 22 22 22 22 23 24 25 26 26 27 28 28 29 29 29 30 30 30 30 31 31 31 30 30 30 30 30
27 26 25 24 23 23 22 21 21 21 21 21 22 22 23 23 23 23 23 23 23 24 25 26 26 27 27 28 29 30 29 30 30 30 30 31 31 31 31 31 31 30 30 30
28 28 27 25 24 24 23 23 22 22 22 22 22 22 22 22 23 23 24 24 24 25 26 27 28 28 29 29 29 29 30 30 30 30 31 31 31 31 31 31 30 30 30 30
28 28 27 26 25 25 24 24 23 23 23 22 22 22 22 22 23 24 25 25 26 27 27 28 28 28 29 29 29 29 29 30 30 30 31 31 32 32 31 31 30 30 30 29
27 27 27 26 26 25 25 24 24 23 23 23 23 23 24 24 24 25 26 27 27 28 28 29 28 28 28 29 29 29 29 30 30 31 31 32 32 32 32 31 31 31 31 30
27 27 27 26 26 26 26 25 24 24 24 24 23 23 24 24 26 26 27 27 27 27 27 28 28 28 29 29 29 30 30 30 31 31 31 32 32 32 32 32 31 31 31 30
28 28 27 27 27 26 26 26 25 25 25 25 24 24 24 25 26 27 28 28 27 28 28 28 28 28 29 30 30 31 31 30 30 31 32 32 32 32 31 32 32 31 31 30
27 28 27 27 27 27 26 26 26 25 25 25 25 25 25 26 26 27 28 28 28 29 29 29 29 29 29 30 30 31 31 31 31 31 32 32 32 31 31 31 32 31 30 30
27 27 27 27 27 27 27 27 27 27 26 26 26 26 26 26 26 27 27 28 28 28 29 29 29 30 30 30 31 31 31 31 31 31 32 32 31 30 30 30 30 30 29 29
26 26 26 26 26 26 26 27 27 27 27 27 27 26 26 26 27 27 27 28 28 29 29 29 29 29 30 30 30 30 30 30 30 31 30 30 29 29 29 29 29 29 29 28
25 25 26 26 25 25 25 25 26 26 26 27 27 27 27 27 28 28 28 28 28 29 29 29 29 29 29 30 30 30 30 29 29 29 29 29 28 28 28 28 28 28 28 27
25 25 25 25 25 25 25 25 25 25 26 27 27 27 27 27 28 28 28 28 28 28 29 29 29 30 30 30 30 29 29 29 29 29 29 28 27 27 27 27 28 28 27 27
24 24 24 25 25 25 25 25 26 26 27 27 27 28 27 27 28 28 28 28 28 28 28 28 28 29 30 30 30 29 29 29 29 29 27 27 27 27 27 26 26 27 27 27
22 23 24 24 25 26 26 26 27 27 27 27 26 26 26 26 27 27 27 27 28 28 28 28 28 29 29 29 29 28 28 28 28 27 26 26 26 26 26 26 26 26 26 26
22 22 23 24 24 24 25 25 25 25 24 24 24 24 25 25 26 26 27 27 27 27 27 28 28 28 28 28 28 28 28 28 27 26 25 25 25 25 25 25 25 25 24 24
22 22 23 24 24 24 24 23 23 23 23 23 24 24 24 25 25 25 25 26 26 26 26 26 27 27 27 27 27 27 27 26 26 25 25 25 24 24 24 24 23 23 23 24
20 20 22 22 22 22 22 22 22 22 22 23 23 23 23 24 24 25 25 25 25 25 25 25 25 26 26 26 26 26 25 25 25 25 25 24 24 23 23 23 23 23 23 24
18 19 20 20 19 19 19 20 20 20 21 21 22 22 23 24 24 24 24 24 24 24 25 25 25 25 25 25 24 24 24 24 24 24 24 23 23 22 22 23 23 23 23 24
17 17 18 18 18 18 19 19 19 19 20 21 21 22 22 23 23 23 23 23 23 24 24 25 25 24 23 23 23 23 24 24 24 23 23 22 21 22 22 23 23 23 24 25
18 18 18 18 18 18 18 18 19 19 19 20 20 21 21 22 22 22 23 23 23 24 24 23 23 23 23 23 23 23 23 23 23 23 22 21 22 22 22 23 23 24 25 25
Wind_Direction
236 240 247 249 248 248 251 253 259 263 262 266 273 273 276 276 278 280 280 281 283 284 284 285 289 291 290 290 291 294 297 299 300 302 304 306 306 306 305 305 305 305 305 305
241 242 246 246 248 249 250 252 258 261 265 267 272 274 275 276 277 279 278 279 281 283 284 286 290 292 292 292 293 295 296 296 298 299 302 304 304 304 306 305 305 306 305 305
244 246 247 246 246 250 252 253 255 257 262 266 268 272 273 275 276 279 278 278 279 282 286 290 290 291 292 292 294 296 297 297 297 298 300 302 302 303 303 304 305 305 304 304
242 241 241 246 249 251 252 255 256 258 260 265 268 269 270 271 274 278 281 279 281 284 287 287 289 292 292 290 291 294 298 300 299 299 301 302 301 301 302 303 304 304 303 303
239 242 246 248 250 252 252 254 258 260 262 265 268 268 269 270 272 279 281 282 282 284 286 287 288 290 291 290 291 293 296 298 299 300 301 302 301 300 302 303 303 303 302 302
241 242 246 251 252 255 254 256 256 260 265 268 269 270 272 271 273 278 281 283 282 283 286 287 289 290 292 293 293 293 294 295 297 298 299 301 303 303 302 302 302 303 302 301
241 244 247 250 252 254 254 256 258 260 264 267 269 272 274 274 274 277 280 282 284 283 285 286 288 291 292 295 295 295 294 295 296 297 299 300 303 303 303 302 303 303 302 302
242 243 246 248 251 252 255 256 258 260 262 265 268 270 274 276 276 275 277 280 284 287 287 288 289 290 292 293 294 296 297 298 300 301 303 304 304 304 303 303 302 302 302 302
241 243 246 249 251 253 254 257 259 260 262 264 266 270 275 276 275 274 276 281 284 287 289 290 292 293 293 294 295 296 296 299 301 302 303 304 304 304 304 303 302 300 301 302
242 244 247 249 251 252 253 254 258 261 264 264 266 271 274 275 276 278 280 282 284 286 289 291 293 294 295 296 297 297 298 299 301 301 302 303 304 304 304 304 303 301 300 300
242 245 248 248 249 251 252 254 257 261 267 268 268 271 273 274 276 277 279 282 285 287 289 292 293 294 295 296 297 299 300 300 302 303 303 304 304 304 304 303 303 301 301 300
243 244 246 247 247 248 251 254 257 261 265 267 270 273 273 273 275 277 279 283 286 288 291 292 292 294 297 297 298 300 300 301 302 303 303 304 304 304 304 303 303 303 302 301
244 245 246 247 247 249 252 254 257 259 263 265 268 271 273 274 275 277 280 283 286 288 291 293 293 295 297 298 299 301 301 302 303 303 303 304 304 304 304 304 304 303 302 301
244 246 247 247 248 249 252 255 258 261 263 265 267 270 273 275 276 277 280 283 285 288 290 291 293 294 296 299 301 302 302 302 302 303 304 304 304 304 304 304 304 304 303 303
244 245 246 247 248 249 251 254 257 260 263 266 269 272 274 276 277 277 278 281 284 287 288 289 292 294 297 299 301 302 303 303 303 303 304 304 305 304 304 305 305 304 304 303
244 245 246 246 248 249 251 254 256 260 263 266 269 271 273 274 276 276 278 281 283 285 287 290 293 295 298 300 302 303 303 304 304 305 304 304 305 305 306 306 306 305 305 304
244 244 244 246 247 249 252 255 258 261 264 266 269 270 271 272 275 276 277 281 284 286 289 291 293 296 298 301 303 304 305 305 305 305 305 305 305 305 306 306 307 307 307 307
244 244 244 245 246 248 250 254 258 260 263 266 268 269 270 272 275 277 280 282 286 289 289 291 293 295 297 300 302 304 305 305 305 306 306 305 306 307 307 308 308 308 309 309
244 243 243 245 247 249 252 255 258 260 263 266 267 268 269 272 275 278 279 282 285 287 289 291 293 296 298 300 302 303 304 305 306 306 307 307 307 308 309 309 308 308 308 309
244 243 243 246 248 251 254 257 259 261 263 265 266 266 268 272 275 277 279 282 285 287 289 291 294 297 298 299 301 302 303 304 306 307 307 308 309 309 310 309 309 309 308 308
244 243 245 247 250 253 256 258 260 262 263 264 266 268 271 273 276 278 281 283 285 286 288 291 294 297 299 300 302 304 304 304 305 308 310 309 310 310 311 310 309 309 309 309
244 245 246 248 253 256 258 260 262 262 263 266 269 271 272 274 276 279 280 282 284 286 288 290 293 296 298 300 302 304 304 304 306 308 310 310 311 312 312 313 311 310 310 310
242 244 246 249 254 258 259 260 261 264 267 269 270 271 272 274 277 279 281 284 285 287 288 290 293 295 299 302 304 305 304 305 306 307 308 309 310 312 314 315 315 314 313 312
243 246 250 253 256 258 256 258 262 264 267 269 271 271 273 276 278 281 283 284 285 286 288 291 294 297 299 302 304 305 305 306 306 307 309 309 310 312 314 315 315 315 315 315
242 245 248 252 256 258 259 260 261 263 265 268 271 274 276 277 280 281 282 283 284 285 288 291 294 298 301 303 304 305 305 307 308 309 310 310 310 311 313 314 314 315 316 317
244 247 250 254 256 258 260 261 263 266 269 271 273 275 275 277 279 281 283 284 284 286 289 292 295 297 300 302 303 304 306 308 310 310 309 310 310 311 313 314 314 316 317 317
249 249 251 256 259 260 262 265 265 267 271 273 275 276 278 279 280 280 282 283 284 287 289 291 293 295 297 299 301 303 305 308 309 309 309 310 311 312 313 313 314 315 316 316
Height
5870 5871 5872 5874 5875 5876 5878 5880 5881 5881 5881 5881 5880 5880 5880 5879 5878 5878 5877 5876 5876 5875 5874 5873 5872 5870 5868 5866 5864 5862 5860 5858 5855 5852 5849 5846 5844 5841 5838 5835 5832 5829 5827 5824
5864 5866 5867 5869 5871 5872 5873 5874 5875 5876 5877 5876 5876 5876 5875 5875 5874 5873 5873 5872 5871 5870 5869 5868 5867 5865 5863 5861 5860 5858 5855 5853 5850 5847 5844 5841 5838 5835 5832 5829 5826 5823 5820 5817
5860 5861 5862 5864 5866 5867 5869 5869 5871 5871 5872 5871 5871 5871 5871 5870 5870 5869 5868 5867 5866 5865 5864 5863 5862 5860 5858 5856 5854 5852 5849 5847 5844 5841 5838 5835 5832 5829 5826 5823 5820 5817 5814 5810
5855 5857 5858 5862 5861 5862 5864 5864 5865 5866 5866 5866 5866 5866 5866 5865 5865 5864 5863 5862 5861 5860 5859 5858 5856 5854 5852 5850 5848 5846 5843 5841 5838 5835 5832 5829 5826 5822 5819 5816 5813 5810 5807 5804
5850 5851 5853 5855 5856 5857 5858 5859 5860 5860 5861 5861 5861 5861 5861 5860 5860 5859 5858 5857 5856 5855 5854 5852 5851 5849 5847 5844 5842 5840 5838 5835 5832 5829 5826 5823 5819 5816 5813 5809 5806 5803 5800 5797
5844 5846 5848 5851 5851 5851 5854 5854 5855 5855 5855 5855 5856 5856 5856 5855 5855 5854 5853 5852 5851 5849 5848 5847 5845 5843 5841 5839 5836 5834 5831 5828 5825 5822 5819 5816 5813 5809 5806 5803 5799 5796 5792 5789
5838 5840 5843 5844 5845 5846 5849 5850 5849 5850 5850 5850 5850 5851 5851 5850 5849 5849 5848 5847 5845 5844 5843 5841 5839 5837 5835 5833 5830 5827 5824 5821 5819 5815 5812 5809 5805 5802 5799 5795 5792 5788 5785 5782
5831 5834 5838 5837 5839 5841 5842 5843 5843 5844 5844 5845 5845 5845 5845 5844 5844 5843 5842 5841 5840 5839 5837 5835 5833 5831 5829 5826 5823 5820 5817 5814 5811 5808 5805 5801 5798 5795 5791 5787 5784 5780 5777 5774
5825 5829 5829 5830 5833 5834 5836 5836 5837 5838 5838 5839 5839 5839 5839 5839 5838 5837 5836 5835 5834 5833 5831 5829 5827 5824 5822 5819 5816 5813 5810 5807 5804 5801 5798 5794 5791 5787 5783 5780 5776 5772 5769 5766
5817 5819 5821 5824 5826 5827 5829 5830 5831 5832 5832 5833 5833 5833 5833 5832 5832 5831 5830 5829 5828 5827 5825 5823 5821 5818 5815 5813 5810 5807 5803 5800 5797 5793 5790 5786 5783 5779 5775 5772 5768 5764 5761 5758
5809 5812 5814 5816 5818 5820 5822 5823 5824 5825 5826 5826 5826 5827 5826 5826 5825 5824 5824 5823 5821 5820 5818 5816 5814 5811 5808 5806 5803 5799 5796 5792 5789 5786 5782 5779 5775 5771 5768 5764 5760 5757 5753 5750
5802 5804 5807 5809 5811 5813 5815 5817 5818 5819 5820 5820 5820 5820 5819 5819 5818 5818 5817 5816 5814 5813 5811 5809 5806 5804 5801 5799 5795 5792 5789 5785 5782 5778 5774 5771 5767 5763 5759 5756 5752 5748 5745 5742
5794 5796 5799 5801 5803 5806 5808 5809 5811 5812 5813 5813 5813 5813 5812 5812 5811 5811 5810 5809 5807 5805 5803 5801 5799 5796 5794 5791 5788 5785 5781 5778 5774 5770 5767 5763 5759 5755 5752 5748 5744 5740 5737 5733
5786 5788 5790 5793 5796 5798 5800 5802 5803 5804 5805 5805 5806 5806 5805 5805 5804 5804 5803 5801 5799 5798 5796 5794 5791 5789 5786 5784 5780 5777 5774 5770 5767 5763 5759 5755 5751 5747 5743 5739 5736 5732 5728 5725
5778 5780 5783 5786 5788 5791 5793 5794 5796 5797 5797 5798 5798 5798 5798 5798 5797 5796 5795 5794 5792 5790 5788 5786 5784 5781 5778 5775 5772 5769 5766 5762 5758 5755 5751 5747 5743 5739 5735 5731 5727 5724 5720 5716
5770 5773 5775 5778 5780 5783 5785 5787 5788 5789 5790 5791 5791 5791 5791 5790 5789 5789 5788 5786 5785 5783 5780 5778 5776 5773 5771 5768 5764 5761 5758 5754 5750 5746 5743 5739 5734 5731 5727 5723 5719 5715 5711 5708
5763 5766 5768 5771 5773 5775 5777 5779 5780 5781 5782 5783 5783 5783 5783 5782 5782 5781 5780 5779 5777 5775 5773 5770 5768 5765 5763 5760 5756 5753 5749 5746 5742 5738 5734 5730 5726 5722 5719 5715 5710 5706 5702 5699
5756 5759 5761 5763 5766 5768 5769 5771 5772 5773 5774 5775 5775 5775 5775 5774 5774 5773 5772 5771 5769 5767 5765 5762 5760 5758 5755 5752 5748 5745 5741 5737 5734 5730 5726 5722 5719 5715 5711 5707 5703 5699 5695 5692
5749 5752 5754 5756 5758 5760 5762 5763 5764 5765 5766 5766 5767 5767 5767 5766 5766 5765 5764 5762 5761 5759 5757 5755 5752 5750 5747 5744 5740 5737 5733 5730 5726 5722 5718 5715 5711 5707 5703 5699 5696 5692 5688 5684
5742 5745 5747 5749 5751 5753 5754 5755 5756 5757 5758 5758 5758 5758 5758 5758 5757 5756 5755 5754 5753 5751 5749 5747 5744 5742 5739 5736 5732 5729 5725 5722 5718 5715 5711 5707 5703 5700 5696 5692 5689 5685 5681 5678
5736 5738 5740 5742 5744 5745 5746 5747 5748 5749 5749 5749 5750 5750 5750 5750 5749 5748 5747 5746 5745 5743 5741 5739 5736 5734 5731 5728 5725 5721 5718 5714 5711 5707 5704 5700 5696 5693 5689 5686 5682 5679 5675 5671
5729 5732 5734 5735 5736 5738 5739 5740 5740 5741 5741 5741 5742 5742 5742 5742 5741 5740 5739 5738 5737 5735 5733 5731 5729 5726 5724 5720 5717 5714 5710 5707 5704 5700 5697 5693 5690 5686 5683 5679 5676 5672 5669 5666
5724 5725 5727 5729 5730 5731 5732 5732 5733 5733 5734 5734 5734 5734 5734 5734 5733 5732 5731 5730 5728 5727 5725 5723 5721 5719 5716 5713 5710 5707 5703 5700 5697 5694 5690 5687 5684 5680 5677 5673 5670 5667 5664 5661
5718 5720 5721 5722 5723 5724 5725 5726 5726 5727 5727 5727 5727 5727 5726 5726 5725 5724 5723 5722 5721 5719 5717 5716 5714 5712 5709 5706 5703 5700 5696 5693 5690 5687 5684 5681 5677 5674 5671 5668 5665 5662 5658 5655
5712 5714 5715 5716 5717 5718 5719 5719 5719 5720 5720 5720 5719 5719 5719 5718 5718 5717 5715 5714 5713 5711 5710 5708 5707 5704 5702 5699 5696 5693 5690 5687 5684 5681 5678 5675 5672 5669 5666 5662 5659 5656 5653 5649
5706 5708 5709 5710 5711 5712 5713 5713 5713 5713 5713 5713 5712 5712 5711 5711 5710 5709 5708 5707 5706 5704 5703 5701 5699 5697 5695 5692 5690 5687 5684 5681 5678 5675 5672 5669 5666 5663 5660 5657 5653 5650 5647 5643
5701 5702 5704 5704 5705 5706 5706 5707 5707 5706 5706 5706 5705 5705 5704 5703 5702 5702 5701 5700 5698 5697 5695 5694 5692 5690 5688 5686 5683 5681 5678 5675 5672 5669 5666 5663 5661 5658 5654 5651 5648 5644 5641 5637